Location: Home
(42.5358°N, 72.7383°W)
Time: 19:32:07
(UTC-05:00)

Transit 4A - Pass Details

Date: 06 December 2021
Orbit: 863 x 981 km, 66.8° (Epoch: 23 January)

Event Time Altitude Azimuth Distance (km) Brightness Sun altitude
Rises 20:36:11 0° 268° (W) 3,483 11.6 -46.7°
Reaches altitude 10° 20:39:46 10° 290° (WNW) 2,569 10.7 -47.4°
Enters shadow 20:40:28 12° 296° (WNW) 2,442 10.6 -47.5°
Maximum altitude 20:43:15 16° 326° (NW) 2,211 - -48.0°
Drops below altitude 10° 20:46:47 10° 2° (N) 2,621 - -48.6°
Sets 20:50:32 0° 24° (NNE) 3,594 - -49.3°
